EW3533 Weather Reports


Display with metric or nautical units.
time (UTC)temp
F
wind
direction
speed
MPH
gust
MPH
rain 1hr
in
rain 24hr
in
rain mn
in
humidity
%
barometer
mb
20260902191551 88 240 9.0 16.0 0.00 0.01 0.01 69 1010.5
20260902190049 89 246 7.0 13.0 0.00 0.01 0.01 71 1010.4
20260902184545 88 243 7.0 13.0 0.00 0.01 0.01 72 1010.9
20260902183055 87 232 8.0 15.0 0.00 0.01 0.01 71 1010.9
20260902181542 86 223 5.0 12.0 0.00 0.01 0.01 72 1011.0
20260902180045 87 221 4.0 11.0 0.00 0.01 0.01 73 1011.0
20260902174538 86 228 4.0 11.0 0.00 0.01 0.01 70 1011.3
20260902173053 87 234 3.0 14.0 0.00 0.01 0.01 70 1011.3
20260902171538 87 214 2.0 11.0 0.00 0.01 0.01 71 1011.4
20260902170034 87 234 4.0 9.0 0.00 0.01 0.01 71 1011.5
20260902164531 86 234 2.0 7.0 0.00 0.01 0.01 71 1011.6
20260902163027 85 236 4.0 8.0 0.00 0.01 0.01 70 1011.9
20260902161523 84 258 0.0 7.0 0.00 0.01 0.01 73 1012.2
20260902160021 84 235 3.0 7.0 0.00 0.01 0.01 74 1012.3
20260902154518 83 292 1.0 7.0 0.00 0.01 0.01 78 1012.6
20260902153016 83 285 3.0 8.0 0.00 0.01 0.01 78 1012.6
20260902151513 82 240 4.0 9.0 0.00 0.01 0.01 78 1012.5
20260902150014 81 287 3.0 10.0 0.00 0.01 0.01 82 1012.6
20260902144510 81 282 2.0 10.0 0.00 0.01 0.01 82 1012.7
20260902143007 81 281 2.0 8.0 0.00 0.01 0.01 82 1012.4
20260902141505 81 270 2.0 7.0 0.00 0.01 0.01 82 1012.2
20260902140002 81 237 2.0 8.0 0.00 0.01 0.01 83 1012.2
20260902134600 80 245 5.0 8.0 0.00 0.01 0.01 84 1012.0
20260902133101 78 194 4.0 7.0 0.00 0.01 0.01 87 1011.9
20260902131551 77 238 5.0 11.0 0.00 0.01 0.01 88 1012.3
20260902130049 77 267 6.0 11.0 0.00 0.01 0.01 89 1012.2
20260902124550 76 243 6.0 11.0 0.00 0.01 0.01 90 1012.1
20260902123050 75 252 5.0 9.0 0.00 0.01 0.01 91 1012.1
20260902121547 75 231 5.0 11.0 0.00 0.01 0.01 91 1011.8
20260902120049 74 234 4.0 9.0 0.00 0.01 0.01 92 1012.0
20260902114544 74 236 4.0 8.0 0.00 0.01 0.01 92 1011.8
20260902113047 74 229 3.0 6.0 0.00 0.01 0.01 92 1011.7
20260902111543 74 217 3.0 5.0 0.00 0.01 0.01 92 1011.8
20260902110050 74 217 1.0 2.0 0.00 0.01 0.01 92 1011.7
20260902104555 74 217 0.0 3.0 0.00 0.01 0.01 92 1011.8
20260902103058 74 217 2.0 5.0 0.00 0.01 0.01 92 1012.1
20260902101540 74 216 3.0 6.0 0.00 0.01 0.01 92 1012.1
20260902100039 74 226 3.0 5.0 0.00 0.01 0.01 92 1012.2
20260902094538 74 227 3.0 5.0 0.00 0.01 0.01 92 1012.1
20260902093037 74 228 1.0 3.0 0.00 0.01 0.01 92 1011.9
20260902091537 74 228 0.0 1.0 0.01 0.01 0.01 91 1011.9
20260902090040 74 228 0.0 2.0 0.01 0.01 0.01 91 1011.8
20260902084540 74 228 0.0 2.0 0.01 0.01 0.01 91 1011.6
20260902083033 75 227 0.0 4.0 0.01 0.01 0.01 91 1011.5
20260902081532 74 228 2.0 5.0 0.00 0.00 0.00 91 1011.9
20260902080031 75 228 0.0 1.0 0.00 0.00 0.00 91 1011.5
20260902074530 75 227 0.0 3.0 0.00 0.00 0.00 91 1011.7
20260902073129 75 227 2.0 4.0 0.00 0.00 0.00 91 1011.7
20260902071528 75 227 2.0 4.0 0.00 0.00 0.00 91 1011.7
20260902070028 75 228 3.0 4.0 0.00 0.00 0.00 91 1011.6
20260902064527 75 228 1.0 3.0 0.00 0.00 0.00 91 1011.5
20260902063043 75 228 1.0 4.0 0.00 0.00 0.00 91 1011.7
20260902061534 75 228 1.0 4.0 0.00 0.00 0.00 91 1011.9
20260902060035 75 228 2.0 4.0 0.00 0.00 0.00 91 1012.0
20260902054523 75 228 2.0 6.0 0.00 0.00 0.00 91 1012.1
20260902053019 75 229 3.0 5.0 0.00 0.00 0.00 91 1012.1
20260902051518 75 219 2.0 5.0 0.00 0.00 0.00 90 1011.9
20260902050021 76 214 1.0 4.0 0.00 0.00 0.00 90 1011.9
20260902044524 76 225 2.0 5.0 0.00 0.00 0.00 89 1012.0
20260902043013 76 227 3.0 8.0 0.00 0.00 0.00 89 1012.0
20260902041512 76 217 3.0 7.0 0.00 0.00 0.00 89 1011.8
20260902040009 77 223 4.0 8.0 0.00 0.00 0.00 89 1011.9
20260902034508 77 228 3.0 7.0 0.00 0.00 0.00 88 1011.8
20260902033009 78 229 4.0 9.0 0.00 0.00 0.00 88 1011.9
20260902031523 78 240 6.0 12.0 0.00 0.00 0.00 89 1012.0
20260902030006 77 232 5.0 9.0 0.00 0.00 0.00 90 1011.9
20260902024504 77 219 2.0 5.0 0.00 0.00 0.00 90 1011.7
20260902023013 77 222 2.0 6.0 0.00 0.00 0.00 89 1011.8
20260902021506 78 223 1.0 4.0 0.00 0.00 0.00 89 1011.7
20260902020002 78 224 3.0 4.0 0.00 0.00 0.00 88 1011.7
20260902014502 79 224 1.0 3.0 0.00 0.00 0.00 87 1011.7
20260902013111 79 223 1.0 5.0 0.00 0.00 0.00 86 1011.8
20260902011559 80 224 1.0 4.0 0.00 0.00 0.00 85 1011.6
20260902004557 81 224 2.0 5.0 0.00 0.00 0.00 82 1011.4
20260902003057 82 217 3.0 8.0 0.00 0.00 0.00 81 1011.3
20260902001558 83 223 2.0 6.0 0.00 0.00 0.00 80 1011.2
20260902000056 84 225 3.0 7.0 0.00 0.00 0.00 78 1011.2
20260901234603 85 232 3.0 9.0 0.00 0.00 0.00 76 1011.3
20260901233054 85 235 5.0 7.0 0.00 0.00 0.00 75 1011.4
20260901231558 86 235 5.0 8.0 0.00 0.00 0.00 73 1011.4
20260901230106 87 236 4.0 8.0 0.00 0.00 0.00 72 1011.5
20260901224554 88 261 5.0 10.0 0.00 0.00 0.00 70 1011.4
20260901223052 88 232 4.0 8.0 0.00 0.00 0.00 69 1011.4
20260901221606 88 267 4.0 10.0 0.00 0.00 0.00 69 1011.3
20260901220050 89 238 6.0 10.0 0.00 0.00 0.00 68 1011.3
20260901214549 89 238 5.0 12.0 0.00 0.00 0.00 69 1011.2
20260901213053 89 238 5.0 9.0 0.00 0.00 0.00 68 1011.1
20260901211548 89 214 7.0 11.0 0.00 0.00 0.00 67 1011.2
20260901210045 89 242 7.0 13.0 0.00 0.00 0.00 67 1011.3
20260901204541 89 234 6.0 11.0 0.00 0.00 0.00 68 1011.4
20260901203045 89 232 4.0 7.0 0.00 0.00 0.00 67 1011.4
20260901201546 89 215 5.0 11.0 0.00 0.00 0.00 67 1011.6
20260901200038 88 248 4.0 11.0 0.00 0.00 0.00 69 1011.7
20260901194536 90 244 4.0 10.0 0.00 0.00 0.00 68 1011.8
20260901193033 89 273 2.0 14.0 0.00 0.00 0.00 71 1011.8